WetterOnline ( http://www.wetteronline.de )

Wetter aktuell Werl

Aktuelles Wetter: Werl (84m)

6-stündlich | Neueste Meldungen
Ortszeit Temperatur Wetter
Di, 25.09. 20:00 10.6° C fast wolkenlos
Di, 25.09. 14:00 13.6° C bedeckt
Di, 25.09. 8:00 5.3° C wolkenlos
Di, 25.09. 2:00 7.1° C fast wolkenlos
Mo, 24.09. 20:00 9.9° C wolkenlos
Mo, 24.09. 14:00 13.1° C bewölkt
Mo, 24.09. 8:00 7.5° C leicht bewölkt
Mo, 24.09. 2:00 8.1° C leicht bewölkt
Ortszeit Temperatur Wetter
Di, 25.09. 23:00 7.5° C wolkig
Di, 25.09. 22:50 7.5° C wolkig
Di, 25.09. 22:40 7.7° C wolkig
Di, 25.09. 22:30 7.8° C wolkig
Di, 25.09. 22:20 7.8° C wolkig
Di, 25.09. 22:10 7.5° C wolkig
Di, 25.09. 22:00 8.0° C wolkig
Di, 25.09. 21:30 8.4° C wolkig
Di, 25.09. 21:00 9.6° C leicht bewölkt
Di, 25.09. 20:30 9.3° C leicht bewölkt
Di, 25.09. 20:00 10.6° C fast wolkenlos
Ortszeit Relative Feuchte Sichtweite
Di, 25.09. 20:00 74% 45 km
Di, 25.09. 14:00 54% 70 km
Di, 25.09. 8:00 91% 16 km
Di, 25.09. 2:00 87% 35 km
Mo, 24.09. 20:00 72% 70 km
Mo, 24.09. 14:00 59% 45 km
Mo, 24.09. 8:00 86% 25 km
Mo, 24.09. 2:00 91% 26 km
Ortszeit Relative Feuchte Sichtweite
Di, 25.09. 23:00 86% 26 km
Di, 25.09. 22:50 86% -
Di, 25.09. 22:40 87% -
Di, 25.09. 22:30 87% 30 km
Di, 25.09. 22:20 87% -
Di, 25.09. 22:10 89% -
Di, 25.09. 22:00 85% 30 km
Di, 25.09. 21:30 82% 35 km
Di, 25.09. 21:00 78% 40 km
Di, 25.09. 20:30 82% 35 km
Di, 25.09. 20:00 74% 45 km
Ortszeit Niederschlagsmenge Niederschlagsart
Di, 25.09. 20:00 0.0 l/m2 in 12 Std. -
Di, 25.09. 14:00 0.0 l/m2 in 6 Std. -
Di, 25.09. 8:00 0.1 l/m2 in 12 Std. -
Di, 25.09. 2:00 0.1 l/m2 in 6 Std. Regen
Mo, 24.09. 20:00 0.6 l/m2 in 12 Std. Regen
Mo, 24.09. 14:00 0.1 l/m2 in 6 Std. Regen
Mo, 24.09. 8:00 0.6 l/m2 in 12 Std. -
Mo, 24.09. 2:00 0.6 l/m2 in 6 Std. Regen
Ortszeit Niederschlagsmenge Niederschlagsart
Di, 25.09. 23:00 0.0 l/m2 in 1 Std. -
Di, 25.09. 22:50 keine Meldung -
Di, 25.09. 22:40 keine Meldung -
Di, 25.09. 22:30 0.0 l/m2 in 1 Std. -
Di, 25.09. 22:20 keine Meldung -
Di, 25.09. 22:10 keine Meldung -
Di, 25.09. 22:00 0.0 l/m2 in 1 Std. -
Di, 25.09. 21:30 0.0 l/m2 in 1 Std. -
Di, 25.09. 21:00 0.0 l/m2 in 1 Std. -
Di, 25.09. 20:30 0.0 l/m2 in 1 Std. -
Di, 25.09. 20:00 0.0 l/m2 in 1 Std. -
Ortszeit Stärke Spitze Richtung
km/h Bft. km/h Grad Sektor
Di, 25.09. 20:00 4 1 18 40° NO
Di, 25.09. 14:00 4 1 14 360° N
Di, 25.09. 8:00 7 2 11 220° SW
Di, 25.09. 2:00 9 2 19 250° W
Mo, 24.09. 20:00 13 3 44 290° W
Mo, 24.09. 14:00 28 4 39 290° W
Mo, 24.09. 8:00 17 3 28 260° W
Mo, 24.09. 2:00 15 3 30 250° W
Ortszeit Stärke Spitze Richtung
km/h Bft. km/h Grad Sektor
Di, 25.09. 23:00 4 1 7 160° S
Di, 25.09. 22:50 4 1 - 160° S
Di, 25.09. 22:40 4 1 - 140° SO
Di, 25.09. 22:30 0 0 7 - -
Di, 25.09. 22:20 0 0 - - -
Di, 25.09. 22:10 2 1 - 170° S
Di, 25.09. 22:00 0 0 7 - -
Di, 25.09. 21:30 4 1 4 200° S
Di, 25.09. 21:00 4 1 7 210° SW
Di, 25.09. 20:30 4 1 7 110° O
Di, 25.09. 20:00 4 1 7 40° NO
Ortszeit Untergrenze Bedeckung Gattung
total tief tief mittel hoch
Di, 25.09. 20:00 9000 m 2/8 0/8 - - -
Di, 25.09. 14:00 1080 m 8/8 8/8 - - -
Di, 25.09. 8:00 - 0/8 0/8 - - -
Di, 25.09. 2:00 2400 m 1/8 1/8 - - -
Mo, 24.09. 20:00 - 0/8 0/8 - - -
Mo, 24.09. 14:00 1170 m 7/8 7/8 - - -
Mo, 24.09. 8:00 1500 m 4/8 4/8 - - -
Mo, 24.09. 2:00 1230 m 2/8 - - - -
Ortszeit Bedeckungsgrad in Achtel und Wolkenuntergrenze
Di, 25.09. 23:00 8(10500m) 8(12000m)
Di, 25.09. 22:50 8(10500m) 8(12000m)
Di, 25.09. 22:40 8(10500m)
Di, 25.09. 22:30 8(10500m) 8(12000m)
Di, 25.09. 22:20 8(10500m) 8(12000m)
Di, 25.09. 22:10 8(10500m) 8(12000m)
Di, 25.09. 22:00 1(8700m) 8(10500m)
Di, 25.09. 21:30 2(7200m) 6(9000m) 8(10500m)
Di, 25.09. 21:00 3(6900m) 4(8400m) 5(9000m)
Di, 25.09. 20:30 1(2400m) 4(10500m) 4(10500m)
Di, 25.09. 20:00 2(9000m) 1(8400m) 2(9000m)
Ortszeit Luftdruck NN (hPa) Tendenz (hPa in 3 Std.)
Di, 25.09. 20:00 1039 + 0,1
Di, 25.09. 14:00 1040 + 0,3
Di, 25.09. 8:00 1039 + 0,6
Di, 25.09. 2:00 1037 + 1,2
Mo, 24.09. 20:00 1034 + 1,4
Mo, 24.09. 14:00 1033 + 0,6
Mo, 24.09. 8:00 1030 + 2,4
Mo, 24.09. 2:00 1024 + 3,5
Ortszeit Luftdruck NN (hPa) Tendenz (hPa in 3 Std.)
Di, 25.09. 23:00 1038 - 0,5
Di, 25.09. 22:50 1038 keine Meldung
Di, 25.09. 22:40 1038 keine Meldung
Di, 25.09. 22:30 1038 - 0,3
Di, 25.09. 22:20 1038 keine Meldung
Di, 25.09. 22:10 1038 keine Meldung
Di, 25.09. 22:00 1039 + 0,3
Di, 25.09. 21:30 1039 + 0,5
Di, 25.09. 21:00 1038 + 0,1
Di, 25.09. 20:30 1038 + 0,3
Di, 25.09. 20:00 1039 + 0,1
Ortszeit Schneehöhe (cm)
Di, 25.09. 20:00 -
Di, 25.09. 14:00 -
Di, 25.09. 8:00 -
Di, 25.09. 2:00 -
Mo, 24.09. 20:00 -
Mo, 24.09. 14:00 -
Mo, 24.09. 8:00 -
Mo, 24.09. 2:00 -
Ortszeit Schneehöhe (cm)
Di, 25.09. 23:00 -
Di, 25.09. 22:50 -
Di, 25.09. 22:40 -
Di, 25.09. 22:30 -
Di, 25.09. 22:20 -
Di, 25.09. 22:10 -
Di, 25.09. 22:00 -
Di, 25.09. 21:30 -
Di, 25.09. 21:00 -
Di, 25.09. 20:30 -
Di, 25.09. 20:00 -
Link zu dieser Seite / Seite empfehlen

Das Wetter in ...